DELTA 1 DEB, 21319

Orbit data source: Space-Track

DELTA 1 DEB, 21319 is space debris in SSO originally from a launch on Thu, 12 Jun 1975 UTC launched from the Air Force Western Test Range (AFWTR). Debris objects in space refer to the collection of defunct objects orbiting the Earth. Examples of debris include non-operational satellites, rocket bodies, and fragments generated from explosions, collisions, or faulty payload assembly.

Loading next visibility...
Identifier
21319, 1975-052AM
Orbit
SSO
Country
Flag of USUS
Related business
Manufacturer
Unknown
Mission
Spacecraft
Bus & Motor
Unknown
Mass
Unknown
Launch date (UTC)
1975-06-12 (51 years ago)
Launch vehicle
Unknown
Launch site
Air Force Western Test Range (AFWTR)
Object type
Payload
Rocket body
Debris
Shape & HBR
Unknown shape, 0.1 m
Radar Cross Section
Small (<0.1 m²)

Expand to show TLE details & history
Last TLE update: 18 hours ago

TLE from 18 hours ago
0 DELTA 1 DEB
1 21319U 75052AM  26124.41303476  .00000379  00000-0  11038-2 0  9992
2 21319  99.6475 297.5979 0233874 300.5039  86.3145 13.06899045664494
Epoch: 2026-05-04T09:54Z
TLE epoch observation values (Epoch: 2026-05-04T09:54:46.203Z)
Latitude
29.08511°
Longitude
-78.7956°
Altitude
1,231.343 km
Speed
7.245 km/s
True Right ascension
19h 28m 47s
True Declination
28° 56' 54"
Sunlit
Object was in daylight at epoch
Visualization orbit readout
Latitude
Unknown
Longitude
Unknown
Altitude
Unknown
Speed
Unknown
Apparent Right ascension
Unknown
Apparent Declination
Unknown
Sunlit
N/A
Visualization observer readout
Local Sidereal Time
11:21:29
Azimuth
Unknown
Elevation
Unknown
Doppler factor
Unknown
Orbital elements
Apogee altitude
1,410.527 km
Perigee altitude
1,054.539 km
Semi-major axis
7,610.67 km
Eccentricity
0.02339
Inclination
99.6475°
RAAN
297.5979°
Arg. of periapsis
300.5039°
True anomaly
88.99301°
Mean anomaly
86.3145°
Eccentric anomaly
87.65338°
Mean motion
3.26895 °/min
Orbital period
110.13 mins
BSTAR
0.0011038
Loading maneuver chart data...
Computing Atmospheric mass density...
Loading historical data...
Loading historical data...
Loading historical data...
Loading historical data...
Loading historical data...
Loading historical data...
Loading historical data...

Documentation

Showing up to 5 results
|